7 * 24
多渠道服务支持
**NuSTAR(核光谱望远镜阵列)** 是美国航空航天局(NASA)主导的X射线太空望远镜,属于小探测工程项目,于2012年6月13日通过空射火箭成功发射入轨。该卫星专注于观测5-80keV的高能X射线,核心科学目标是探测超大质量黑洞、活动星系核的粒子加速机制,以及超新星残骸中的重元素形成过程,其成像清晰度与灵敏度远超同波段前代设备,填补了高能X波段天文观测的空白,为人类研究极端宇宙环境提供了关键数据。
美国
(US)
| 数据来源 | 国际轨道数据 |
| 星历时间: | 2026-09-14T06:00:02+0800 4小时前 查看轨道信息 |
| 半长轴: | 6915.805km |
| 偏心率: | 0.0007748 |
| 轨道倾角: | 6.026° |
| 近地点辐角 | 342.485° |
| 升交点赤经 | 88.170° |
| 平近点角 | 15.010° |
| 近地点: | 532.309km |
| 远地点: | 543.027km |
| 周期: | 95.395分钟 |
| 每日圈数: | 15.095195 |